Hourly Data Report for October 03, 2017

All times are specified in Local Standard Time (LST). Add 1 hour to adjust for Daylight Saving Time where and when it is observed.

KENTVILLE CDA CS
NOVA SCOTIA

45°04'00.000" N
64°29'00.000" W
48.70 m
8202810
71671
XKT

Download Data

Hourly Data (October 2017)
Hourly Data Report for October 3, 2017
Temp Definition
°C
Dew Point Temp Definition
°C
Rel Hum Definition
%
Wind Dir Definition
10's deg

Wind Spd Definition
km/h
Visibility Definition
km
Stn Press Definition
kPa
Hmdx Definition


Wind Chill Definition


Weather Definition


TIME
00:00 3.0 2.0 94 20 5   102.81     LegendNANA
01:00 3.1 2.2 94 20 4   102.85     LegendNANA
02:00 3.8 2.6 92 21 8   102.87     LegendNANA
03:00 2.2 1.6 95 18 2   102.86     LegendNANA
04:00 2.7 1.7 93 24 3   102.91     LegendNANA
05:00 3.3 2.8 97 20 5   102.95     LegendNANA
06:00 2.2 1.8 97 18 5   102.99     LegendNANA
07:00 2.7 2.3 98 20 7   103.06     LegendNANA
08:00 7.4 5.4 87 25 2   103.07     LegendNANA
09:00 9.4 5.2 75 33 5   103.08     LegendNANA
10:00 11.3 5.5 67 28 5   103.15     LegendNANA
11:00 12.3 4.6 60 26 6   103.05     LegendNANA
12:00 13.3 4.2 54 26 9   103.04     LegendNANA
13:00 13.1 5.1 58 29 14   103.03     LegendNANA
14:00 12.4 4.2 57 29 11   102.98     LegendNANA
15:00 12.2 3.2 54 27 7   102.86     LegendNANA
16:00 12.2 4.2 58 23 8   102.76     LegendNANA
17:00 11.5 3.7 59 23 6   102.69     LegendNANA
18:00 10.4 3.2 61 24 5   102.68     LegendNANA
19:00 8.5 3.0 69 22 8   102.63     LegendNANA
20:00 7.5 3.4 75 21 6   102.64     LegendNANA
21:00 8.1 4.1 76 21 9   102.56     LegendNANA
22:00 7.4 4.7 83 24 6   102.53     LegendNANA
23:00 8.2 5.4 83 22 8   102.46     LegendNANA

Notes on Data Quality.

Legend

  • E = Estimated
  • M = Missing
  • NA = Not Available
  • ‡ = Partner data that is not subject to review by the National Climate Archives
Date modified: